This is the latest recevied weather packets stored in our database for station/object N6GPM. If no packets are shown the sender has not sent any weather packets the latest 10 day(s).
| Time | Temp. | Humidity | Pressure | Rain* | Wind** | Luminosity | Snow |
|---|---|---|---|---|---|---|---|
| 1778013132 | 16.67° C | 52% | 1017.7 hPa | 0 mm | - | 434 W/m² | - |
| 1778012828 | 17.22° C | 52% | 1017.7 hPa | 0 mm | - | 853 W/m² | - |
| 1778012524 | 16.67° C | 54% | 1017.8 hPa | 0 mm | - | 337 W/m² | - |
| 1778012220 | 16.11° C | 55% | 1018 hPa | 0 mm | - | 908 W/m² | - |
| 1778011918 | 16.11° C | 55% | 1017.7 hPa | 0 mm | - | 387 W/m² | - |
| 1778011611 | 16.67° C | 56% | 1017.9 hPa | 0 mm | - | 1051 W/m² | - |
| 1778009791 | 16.11° C | 59% | 1018.1 hPa | 0 mm | - | 365 W/m² | - |
| 1778009488 | 16.67° C | 58% | 1018.1 hPa | 0 mm | - | 343 W/m² | - |
| 1778009187 | 16.11° C | 57% | 1018 hPa | 0 mm | - | 941 W/m² | - |
| 1778008884 | 16.11° C | 56% | 1018.3 hPa | 0 mm | - | 637 W/m² | - |
| 1778008582 | 15.56° C | 58% | 1018.4 hPa | 0 mm | - | 999 W/m² | - |
| 1778008280 | 15.56° C | 59% | 1018.5 hPa | 0 mm | - | 450 W/m² | - |
| 1778007975 | 15.56° C | 60% | 1018.1 hPa | 0 mm | - | 390 W/m² | - |
| 1778007368 | 15.56° C | 62% | 1018.2 hPa | 0 mm | - | 865 W/m² | - |
| 1778006154 | 14.44° C | 64% | 1018.3 hPa | 0 mm | - | 996 W/m² | - |
| 1778005851 | 14.44° C | 65% | 1018.2 hPa | 0 mm | - | 408 W/m² | - |
| 1778004334 | 14.44° C | 71% | 1018.4 hPa | 0 mm | - | 245 W/m² | - |
| 1778003732 | 13.89° C | 71% | 1018.2 hPa | 0 mm | - | 271 W/m² | - |
| 1778002822 | 13.89° C | 69% | 1018.2 hPa | 0 mm | - | 283 W/m² | - |
| 1778002519 | 13.89° C | 70% | 1018.1 hPa | 0 mm | - | 315 W/m² | - |
| 1778002216 | 13.89° C | 69% | 1018 hPa | 0 mm | - | 348 W/m² | - |
| 1778001914 | 13.89° C | 71% | 1017.9 hPa | 0 mm | - | 1108 W/m² | - |
| 1778001609 | 13.89° C | 72% | 1018.1 hPa | 0 mm | - | 562 W/m² | - |
| 1778001305 | 13.33° C | 73% | 1017.6 hPa | 0 mm | - | 534 W/m² | - |
| 1778001002 | 13.33° C | 74% | 1018 hPa | 0 mm | - | 406 W/m² | - |
* Rain latest hour (hover to see other rain measurements)
** Current wind speed in m/s (hover to see current wind gust speed)